Regional Weather Roundup
Issued by NWS

Home | Current Version | Previous Version | Graphics & Text | Print | Product List | Glossary On
Versions: 1 2 3 4 5 6 7 8 9 10 11 12 13 14 15 16 17 18 19 20 21 22 23 24 25 26 27 28 29 30 31 32 33 34 35 36 37 38 39 40 41 42 43 44 45 46 47 48 49 50
000
ASUS43 KLMK 042302
RWRKY
KENTUCKY REGIONAL WEATHER ROUNDUP
NATIONAL WEATHER SERVICE LOUISVILLE KY
700 PM EDT FRI SEP 04 2015

NOTE "FAIR" INDICATES FEW OR NO CLOUDS BELOW 12,000 FEET
WITH NO SIGNIFICANT WEATHER AND/OR OBSTRUCTIONS TO VISIBILITY.

KYZ001>023-026-027-061>063-070>075-050000-
WESTERN AND SOUTH CENTRAL KENTUCKY

CITY           SKY/WX    TMP DP  RH WIND       PRES   REMARKS
PADUCAH        SUNNY     92  67  43 E5        29.98S HX  95
HENDERSON      SUNNY     90  68  48 CALM      29.98S HX  93
OWENSBORO      SUNNY     93  67  42 N5        30.00S HX  96
HOPKINSVILLE   SUNNY     87  69  55 W6        29.99S HX  91
BOWLING GREEN  SUNNY     92  66  42 CALM      30.00S HX  94
GLASGOW        NOT AVBL
$$

KYZ024-025-028>034-038-045-046-053-050000-
NORTH CENTRAL KENTUCKY

CITY           SKY/WX    TMP DP  RH WIND       PRES   REMARKS
LOUISVILLE/SDF MOSUNNY   92  61  35 W7        30.00R HX  92
LOUISVILLE/LOU SUNNY     92  64  39 NW3       30.01R HX  93
FORT KNOX      SUNNY     88  68  50 NE5       30.01R HX  92
$$

KYZ035>037-039>044-047>052-055>060-089>105-050000-
NORTHEAST KENTUCKY

CITY           SKY/WX    TMP DP  RH WIND       PRES   REMARKS
LEXINGTON      SUNNY     91  64  40 NW3       30.04R HX  92
COVINGTON      PTSUNNY   91  66  43 W3        30.04R HX  93
FRANKFORT      SUNNY     89  65  44 NW5       30.02R HX  91
$$

KYZ054-064>069-076>088-106>120-050000-
SOUTHEAST KENTUCKY

CITY           SKY/WX    TMP DP  RH WIND       PRES   REMARKS
JACKSON        MOSUNNY   82  67  60 CALM      30.07R
LONDON         SUNNY     89  63  41 N6        30.05R HX  90
SOMERSET       NOT AVBL
MIDDLESBORO    SUNNY     85  69  57 W3        30.03R
MONTICELLO     CLEAR     88  70  55 CALM      30.05S HX  93
$$




USA.gov is the U.S. government's official web portal to all federal, state and local government web resources and services.